Location: Lafig�re
(44.4503°N, 4.0357°E)
Time: 21:12:41
(UTC+00:00)

S-56A Canister/Altair - All Passes

Search period start: 21 January 2021 00:00
Search period end: 31 January 2021 00:00
Orbit: 633 x 2499 km, 38.9° (Epoch: 20 January)

Date Brightness Start Highest point End Pass type
(mag) Time Alt. Az. Time Alt. Az. Time Alt. Az.
21 Jan - 02:40:02 10° SSW 02:43:29 22° SSE 02:47:10 10° ESE visible
21 Jan - 04:42:00 10° WSW 04:46:25 46° S 04:52:03 10° ESE visible
21 Jan - 06:44:51 10° W 06:49:50 41° SSW 06:56:51 10° SE daylight
21 Jan - 08:48:44 10° WSW 08:53:37 21° SSW 08:59:58 10° SSE daylight
22 Jan - 02:07:49 10° SSW 02:11:01 19° SSE 02:14:17 10° ESE night (unlit)
22 Jan - 04:09:39 10° WSW 04:13:54 43° S 04:19:04 10° E visible
22 Jan - 06:12:30 10° W 06:17:14 41° S 06:23:43 10° ESE visible
22 Jan - 08:16:11 10° WSW 08:20:53 22° SSW 08:26:59 10° SSE daylight
23 Jan - 01:35:38 10° SSW 01:38:34 17° SSE 01:41:26 10° ESE night (unlit)
23 Jan - 03:37:16 10° WSW 03:41:25 40° S 03:46:12 10° E visible
23 Jan - 05:40:08 10° W 05:44:39 42° S 05:50:39 10° ESE visible
23 Jan - 07:43:42 10° WSW 07:48:12 23° SSW 07:54:02 10° SSE daylight
24 Jan - 01:03:28 10° S 01:06:05 15° SSE 01:08:35 10° ESE night (unlit)
24 Jan - 03:04:51 10° SW 03:08:57 37° SSE 03:13:24 10° E visible
24 Jan - 05:07:45 10° WSW 05:12:07 42° S 05:17:39 10° ESE visible
24 Jan - 07:11:14 10° WSW 07:15:32 24° SSW 07:21:06 10° SSE daylight
25 Jan - 00:31:19 10° S 00:33:35 13° SSE 00:35:42 10° ESE night (unlit)
25 Jan - 02:32:24 10° SW 02:36:29 34° SSE 02:40:41 10° E visible
25 Jan - 04:35:21 10° WSW 04:39:36 42° S 04:44:45 10° ESE visible
25 Jan - 06:38:47 10° WSW 06:42:55 24° SSW 06:48:12 10° SSE visible
25 Jan - 23:59:14 10° S 00:01:03 12° SSE 00:02:46 10° SE night (unlit)
26 Jan - 01:59:53 10° SW 02:04:02 32° SSE 02:08:02 10° ESE night (unlit)
26 Jan - 04:02:55 10° WSW 04:07:07 42° S 04:11:56 10° ESE visible
26 Jan - 06:06:20 10° WSW 06:10:21 25° SSW 06:15:21 10° SE visible
26 Jan - 23:27:20 10° SSE 23:28:30 11° SSE 23:29:37 10° SE night (unlit)
27 Jan - 01:27:20 10° SW 01:31:34 30° SSE 01:35:27 10° ESE night (unlit)
27 Jan - 03:30:26 10° WSW 03:34:38 42° S 03:39:12 10° ESE visible
27 Jan - 05:33:53 10° WSW 05:37:48 26° SSW 05:42:34 10° SE visible
28 Jan - 00:54:43 10° SW 00:59:05 28° SSE 01:02:54 10° ESE night (unlit)
28 Jan - 02:57:53 10° WSW 03:02:10 42° S 03:06:32 10° ESE visible
28 Jan - 05:01:25 10° WSW 05:05:17 28° SSW 05:09:50 10° SE visible
29 Jan - 00:22:01 10° SW 00:26:35 27° SSE 00:30:24 10° ESE night (unlit)
29 Jan - 02:25:17 10° WSW 02:29:41 42° S 02:33:56 10° ESE night (unlit)
29 Jan - 04:28:54 10° WSW 04:32:46 29° SSW 04:37:09 10° SE visible
29 Jan - 06:34:46 10° SW 06:35:55 11° SSW 06:37:06 10° SSW visible
29 Jan - 23:49:17 10° SW 23:54:03 25° SSE 23:57:57 10° ESE night (unlit)
30 Jan - 01:52:36 10° WSW 01:57:14 42° S 02:01:25 10° ESE night (unlit)
30 Jan - 03:56:22 10° WSW 04:00:18 31° SSW 04:04:32 10° SE visible
30 Jan - 06:01:39 10° SW 06:03:21 12° SSW 06:05:09 10° S visible
30 Jan - 23:16:30 10° SSW 23:21:29 24° SSE 23:25:29 10° ESE night (unlit)
